Terminal Aerodrome Forecast
Issued by NWS Austin/San Antonio, TX

Home | Current Version | Previous Version | Text Only | Print | Product List | Glossary On
Versions: 1 2 3 4 5 6 7 8 9 10 11 12 13 14 15 16 17 18 19 20 21 22 23 24 25 26 27 28
000
FTUS44 KEWX 190300 AAA
TAFDRT
TAF AMD
KDRT 190327Z 1903/1924 33005KT P6SM OVC060
     FM190600 32003KT P6SM OVC015
      TEMPO 1906/1909 5SM -TSRA BR OVC010CB
     FM191200 31004KT 3SM BR OVC007
     FM191600 32006KT P6SM OVC015
     FM191800 32007KT P6SM BKN050
     FM192100 32006KT P6SM BKN025=

USA.gov is the U.S. government's official web portal to all federal, state and local government web resources and services.